www.pogodaiklimat.ru
ПОГОДА в Сан-Диего
Время
и дата
00:22 20.07
00:45 20.07
00:55 20.07
01:05 20.07
01:37 20.07
01:55 20.07
02:55 20.07
03:55 20.07
04:43 20.07
05:02 20.07
05:40 20.07
05:55 20.07
06:08 20.07
06:13 20.07
06:31 20.07
06:55 20.07
07:02 20.07
07:42 20.07
07:55 20.07
08:55 20.07
09:55 20.07
10:55 20.07
12:55 20.07
13:55 20.07
14:55 20.07
15:55 20.07
16:55 20.07
17:55 20.07
18:55 20.07
19:55 20.07
20:55 20.07
21:55 20.07
22:55 20.07
23:55 20.07
00:55 21.07
01:23 21.07
01:55 21.07
02:03 21.07
02:55 21.07
03:55 21.07
04:55 21.07
05:12 21.07
05:24 21.07
05:51 21.07
05:55 21.07
06:19 21.07
06:55 21.07
07:55 21.07
Ветер
(напр.,м/с)
Видим. Явления Облачность Т
(С)
Тd
(С)
f
(%)
Тe
(С)
Тes
(С)
Комфортность P
(гПа)
Po
(гПа)
Тmin
(С)
Tmax
(С)
R
(мм)
R24
(мм)
S
(см)
С 3 3 км 10/10 90 м +18.9 +17.8 93 +21 +21 комфорт 996.0
С 3 800 м ?/? +18.3 +17.8 97 +19 +19 996.0
С 2 400 м ?/? +18.3 +17.8 97 +19 +19 1012.7 995.7
С 3 800 м ?/? +18.3 +17.2 93 +19 +19 995.7
С 3 400 м ?/? +18.3 +17.8 97 +19 +19 995.7
С 2 400 м ?/? +18.3 +17.8 97 +19 +19 1012.3 995.7
штиль 0 800 м ?/? 995.3
СЗ 2 400 м ?/? 995.7
штиль 0 1 км ?/? 995.7
штиль 0 400 м ?/? 996.0
СВ 2 1 км 10/10 60 м 996.0
С 2 800 м 10/10 60 м 996.3
СЗ 2 2 км 10/10 60 м 996.3
СЗ 2 400 м 10/10 60 м 996.3
СЗ 2 800 м 10/10 60 м 996.7
нст 3 3 км 10/10 60 м 996.3
З 2 4 км 10/10 60 м +19.4 +10.0 55 +21 +21 комфорт 996.7
нст 3 5 км 8/8 120 м +21.7 +11.7 53 +24 +25 комфорт 996.7
З 3 5 км 2/2 120 м +21.7 +12.8 57 +24 +27 комфорт 1013.6 996.7
нст 3 10 км ясно +23.3 +18.3 73 +29 +36 душно 1013.8 997.0
нст 3 13 км ясно +25.6 +17.8 62 +30 +41 душно 1013.7 996.7
СЗ 3 13 км ясно +27.2 +17.8 56 +31 +46 душно 1013.4 996.7
СЗ 4 13 км ясно +27.8 +17.8 55 +32 +47 душно 1012.5 995.7
СЗ 4 14 км ясно +28.9 +17.2 49 +33 +46 очень
душно
1012.2 995.3
З 4 16 км ясно +27.2 +17.2 54 +31 +42 душно 995.0
СЗ 3 16 км ясно +26.7 +17.2 56 +31 +40 душно 994.7 +25.6 +28.9
З 3 16 км ясно +24.4 +16.7 62 +28 +34 душно 994.3
СЗ 3 16 км ясно +23.9 +16.1 62 +27 +30 жарко 994.3
З 3 13 км ясно +21.7 +17.2 76 +26 +26 душно 994.7
З 3 13 км ясно +20.0 +16.7 81 +23 +23 комфорт 1011.9 995.0
З 2 11 км ясно +19.4 +16.7 84 +22 +22 комфорт 1012.4 995.7
штиль 0 10 км ясно +18.9 +16.7 87 +20 +20 1012.4 995.3 +18.9 +26.7
З 2 10 км ясно +18.3 +17.2 93 +19 +19 1012.2 995.3
З 2 8 км ясно +18.3 +16.7 90 +19 +19 1011.8 995.0
З 2 8 км ясно +18.3 +16.7 90 +19 +19 1011.5 994.7
З 2 6 км 8/8 180 м +18.3 +16.7 90 +19 +19 994.7
С 2 6 км 10/10 150 м +19.4 +17.2 87 +22 +22 комфорт 1011.1 994.3
штиль 0 6 км 10/10 120 м +18.9 +17.2 90 +20 +20 994.3
штиль 0 5 км 10/10 90 м 994.0
штиль 0 6 км 10/10 120 м 994.0
штиль 0 6 км 10/10 120 м 994.3
штиль 0 5 км 8/8 150 м 994.3
штиль 0 5 км 2/2 150 м +18.9 +17.2 90 +20 +20 994.3
штиль 0 5 км 8/8 180 м +19.0 +17.0 88 +20 +20 994.7
штиль 0 5 км 8/8 180 м +19.4 +17.2 87 +21 +21 комфорт 1011.7 994.7
штиль 0 6 км 2/2 180 м +20.0 +17.8 87 +23 +24 комфорт 995.0
Ю 2 8 км 2/2 240 м +21.7 +17.8 78 +26 +27 душно 1012.1 995.3
штиль 0 10 км ясно +23.3 +17.8 71 +29 +34 душно 1012.4 995.7
Местоположение метеостанции Mitscher Field Airport: широта 32.8683 долгота -117.1425 высота над уровнем моря 146 м.
В архиве по умолчанию представлена погода в Сан-Диего за последние 1-2 суток. Обновление информации о фактической погоде в базе происходит ежечасно! Архивные данные за месяц целиком и за предыдущие месяцы Вы можете получить, выбрав интересующий диапазон дат из раскрывающегося списка и нажав кнопку "Ввод!".
Внимание! Архив погоды МЕТАР в базе сайта по станциям, не включенным в климатический монитор, хранится не более 60 дней. Нет смысла пытаться выбрать более раннюю дату.
*Определитесь, кто Вы:
Внимание! Время в таблицах - местное (без учета летнего времени). Для получения всемирного времени необходимо вычесть поправку, которая равна -8 ч.
Смотрите также архив погоды в соседних городах и на ближайших метеорологических станциях:
Партнеры нашего сайта:      
Пояснения к столбцам:
  • Ветер - указаны скорость ветра в м/с - средняя за 10 мин, порывы в срок и между сроками (в фигурных скобках) и направление, откуда дует ветер: С - северный,
  • СВ - северо-восточный, В - восточный, ЮВ - юго-восточный, Ю - южный, ЮЗ - юго-западный, З - западный, СЗ - северо-западный.
  • Видимость - горизонтальная дальность видимости в метрах или километрах. При видимости от 1 до 10 км при отсутствии осадков обычно наблюдается дымка, при ухудшении видимости до 1 км и менее - туман. В сухую погоду видимость может ухудшаться дымом, пылью или мглою.
  • Явления - указаны атмосферные явления, наблюдавшиеся в срок или в последний час перед сроком; фигурными скобками обозначены явления, наблюдавшиеся между сроками (за 1-3 часа до срока); квадратными скобками обозначены град или гололедные отложения с указанием их диаметра в мм.
  • Облачность - указаны через наклонную черту общая и нижняя облачность в баллах и высота нижней границы облаков в метрах; квадратными скобками обозначены формы облаков: Ci - перистые, Cs - перисто-слоистые, Cc - перисто-кучевые, Ac - высококучевые, As - высокослоистые, Sc - слоисто-кучевые, Ns - слоисто-дождевые, Cu - кучевые, Cb - кучево-дождевые. Подробнее классификацию облаков см. в Атласе облаков (PDF).
  • T - Температура воздуха - температура, измеренная на высоте 2 м над землей.
  • Td - Температура точки росы - температура, при понижении до которой содержащийся в воздухе водяной пар достигнет насыщения.
  • f - Относительная влажность воздуха - влажноcть воздуха, измеренная на высоте 2 м над землей.
  • Te - Эффективная температура - температура, которую ощущает одетый по сезону человек в тени. Характеристика душности погоды. При расчете учитывается влияние влажности воздуха и скорости ветра на теплоощущения человека.
  • Tes - Эффективная температура на солнце - температура, которую ощущает человек, с поправкой на солнечный нагрев. Характеристика знойности погоды. Зависит от высоты солнца над горизонтом, облачности и скорости ветра. Ночью, в пасмурную погоду, а также при ветре 12 м/с и более поправка равна нулю.
  • P - Атмосферное давление - приведенное к уровню моря атмосферное давление.
  • Po - Атмосферное давление - измеренное на уровне метеостанции атмосферное давление.
  • Tmin - Минимальная температура - минимум температуры воздуха на высоте 2 м над землей.
  • Tmax - Максимальная температура - максимум температуры воздуха на высоте 2 м над землей.
  • R - Количество осадков - Количество выпавших осадков за период времени, мм. При наведении курсора мыши на число - период времени, за который выпало указанное количество осадков.
  • R24 - Количество осадков - Количество выпавших осадков за 24 часа, мм.
  • S - Снежный покров - Высота снежного покрова, см. При наведении курсора мыши на число - состояние снежного покрова и степень покрытия местности в баллах.